FW2977 Weather Reports


Display with metric or nautical units.
time (UTC)temp
F
wind
direction
speed
MPH
gust
MPH
rain 1hr
in
rain 24hr
in
rain mn
in
humidity
%
barometer
mb
20260906070021 58 207 0.0 0.0 0.00 0.00 0.00 95 961.3
20260906064519 58 207 0.0 0.0 0.00 0.00 0.00 96 961.2
20260906063020 58 207 0.0 0.0 0.00 0.00 0.00 95 961.5
20260906061519 58 207 0.0 0.0 0.00 0.00 0.00 95 961.6
20260906060019 58 207 0.0 0.0 0.00 0.00 0.00 95 961.5
20260906054517 58 207 0.0 1.0 0.00 0.00 0.00 95 961.5
20260906053015 58 207 0.0 0.0 0.00 0.00 0.00 95 961.6
20260906051514 59 207 0.0 1.0 0.00 0.00 0.00 94 961.6
20260906050038 59 207 0.0 1.0 0.00 0.00 0.00 94 961.5
20260906044512 59 207 0.0 2.0 0.00 0.00 0.00 94 961.4
20260906043011 59 207 0.0 1.0 0.00 0.00 0.00 94 961.4
20260906041509 60 207 0.0 2.0 0.00 0.00 0.00 94 961.5
20260906040006 60 169 0.0 3.0 0.00 0.00 0.00 93 961.5
20260906034506 60 164 0.0 2.0 0.00 0.00 0.00 93 961.5
20260906033002 60 126 0.0 3.0 0.00 0.00 0.00 93 961.5
20260906031503 60 203 0.0 0.0 0.00 0.00 0.00 93 961.3
20260906030001 61 219 0.0 0.0 0.00 0.00 0.00 93 961.3
20260906024500 61 219 0.0 0.0 0.00 0.00 0.00 93 961.4
20260906023121 61 219 0.0 2.0 0.00 0.00 0.00 92 961.3
20260906021612 61 134 0.0 0.0 0.00 0.00 0.00 91 961.3
20260906020101 62 134 0.0 0.0 0.00 0.00 0.00 91 961.2
20260906014606 62 117 0.0 1.0 0.00 0.00 0.00 91 961.1
20260906013058 62 215 0.0 1.0 0.00 0.00 0.00 91 961.0
20260906011603 62 214 0.0 0.0 0.00 0.00 0.00 91 961.0
20260906010056 62 214 0.0 1.0 0.00 0.00 0.00 90 961.0
20260906004557 62 214 0.0 0.0 0.00 0.00 0.00 90 960.9
20260906003104 63 214 0.0 0.0 0.00 0.00 0.00 89 960.6
20260906001553 63 214 0.0 1.0 0.00 0.00 0.00 89 960.5
20260906000052 63 208 0.0 1.0 0.00 0.00 0.00 88 960.5
20260905234601 63 208 0.0 2.0 0.00 0.00 0.00 88 960.5
20260905233052 64 212 0.0 1.0 0.00 0.00 0.00 88 960.6
20260905231551 64 211 0.0 1.0 0.00 0.00 0.00 87 960.6
20260905230053 65 206 0.0 2.0 0.00 0.00 0.00 87 960.5
20260905224550 65 211 0.0 3.0 0.00 0.00 0.00 85 960.5
20260905223051 66 40 0.0 2.0 0.00 0.00 0.00 85 960.4
20260905221549 67 189 0.0 2.0 0.00 0.00 0.00 85 960.2
20260905220051 67 178 0.0 1.0 0.00 0.00 0.00 84 960.1
20260905214602 67 348 0.0 2.0 0.00 0.00 0.00 84 960.0
20260905213048 67 300 0.0 3.0 0.00 0.00 0.00 83 959.9
20260905211547 67 279 0.0 4.0 0.00 0.00 0.00 83 959.8
20260905210048 68 221 0.0 4.0 0.00 0.00 0.00 84 959.8
20260905204545 68 231 0.0 2.0 0.00 0.00 0.00 84 959.6
20260905203046 67 173 0.0 2.0 0.00 0.00 0.00 82 959.7
20260905201545 68 318 0.0 2.0 0.00 0.00 0.00 82 959.7
20260905200047 68 315 0.0 1.0 0.00 0.00 0.00 81 959.8
20260905194543 69 315 0.0 2.0 0.00 0.00 0.00 81 959.8
20260905193043 69 40 0.0 2.0 0.00 0.00 0.00 78 959.7
20260905191543 69 50 0.0 3.0 0.00 0.00 0.00 78 959.8
20260905190042 69 348 0.0 2.0 0.00 0.00 0.00 78 959.8
20260905184553 69 36 0.0 3.0 0.00 0.00 0.00 77 959.8
20260905183042 69 82 0.0 2.0 0.00 0.00 0.00 79 959.9
20260905181541 69 94 0.0 3.0 0.00 0.00 0.00 80 960.0
20260905180042 69 41 0.0 3.0 0.00 0.00 0.00 77 959.9
20260905174545 67 68 0.0 3.0 0.00 0.00 0.00 80 959.9
20260905173039 68 300 0.0 5.0 0.00 0.00 0.00 80 959.9
20260905171540 67 307 1.0 5.0 0.00 0.00 0.00 81 960.1
20260905170138 67 205 1.0 3.0 0.00 0.00 0.00 79 960.1
20260905164537 70 113 0.0 3.0 0.00 0.00 0.00 78 960.1
20260905163136 70 306 0.0 3.0 0.00 0.00 0.00 81 960.0
20260905161533 68 92 0.0 3.0 0.00 0.00 0.00 82 960.2
20260905160046 66 169 0.0 3.0 0.00 0.00 0.00 83 960.3
20260905154531 67 170 0.0 3.0 0.00 0.00 0.00 85 960.4
20260905153029 66 263 0.0 3.0 0.00 0.00 0.00 84 960.3
20260905151527 67 315 0.0 4.0 0.00 0.00 0.00 85 960.4
20260905150028 67 262 1.0 8.0 0.00 0.00 0.00 83 960.5
20260905144540 66 230 1.0 3.0 0.00 0.00 0.00 85 960.4
20260905143024 66 220 1.0 3.0 0.00 0.00 0.00 86 960.4
20260905141525 65 233 0.0 4.0 0.00 0.00 0.00 87 960.3
20260905140013 64 205 1.0 3.0 0.00 0.00 0.00 89 960.4
20260905134515 63 211 0.0 0.0 0.00 0.00 0.00 89 960.4
20260905133009 63 211 0.0 0.0 0.00 0.00 0.00 89 960.2
20260905131507 62 211 0.0 0.0 0.00 0.00 0.00 90 960.2
20260905130002 61 211 0.0 0.0 0.00 0.00 0.00 91 960.3
20260905124558 61 211 0.0 0.0 0.00 0.00 0.00 93 960.7
20260905123057 60 211 0.0 0.0 0.00 0.00 0.00 94 960.7
20260905121553 60 211 0.0 1.0 0.00 0.00 0.00 95 960.7
20260905120048 59 211 0.0 1.0 0.00 0.00 0.00 96 960.4
20260905114621 59 211 0.0 0.0 0.00 0.00 0.00 96 960.2
20260905113040 59 211 0.0 0.0 0.00 0.00 0.00 96 959.9
20260905111547 58 211 0.0 0.0 0.00 0.00 0.00 96 959.9
20260905110034 58 211 0.0 0.0 0.00 0.00 0.00 96 959.8
20260905104533 58 211 0.0 0.0 0.00 0.00 0.00 96 959.6
20260905103035 58 211 0.0 0.0 0.00 0.00 0.00 96 959.3
20260905101533 58 211 0.0 2.0 0.00 0.00 0.00 96 959.2
20260905100030 58 211 0.0 0.0 0.00 0.00 0.00 95 959.1
20260905094529 58 211 0.0 0.0 0.00 0.00 0.00 95 959.0
20260905093030 58 211 0.0 0.0 0.00 0.00 0.00 95 959.1
20260905091526 59 211 0.0 1.0 0.00 0.00 0.00 95 959.1
20260905090024 59 211 0.0 2.0 0.00 0.00 0.00 95 959.1
20260905084524 59 211 0.0 0.0 0.00 0.00 0.00 95 959.2
20260905083022 59 211 0.0 0.0 0.00 0.00 0.00 94 959.1
20260905081521 60 211 0.0 2.0 0.00 0.00 0.00 95 959.2
20260905080022 60 211 0.0 2.0 0.00 0.00 0.00 94 959.2
20260905074520 60 211 0.0 2.0 0.00 0.00 0.00 94 959.2
20260905073026 60 211 0.0 2.0 0.00 0.00 0.00 94 959.3
20260905071518 60 211 0.0 1.0 0.00 0.00 0.00 93 959.3